Location: Rockford
(40.2514°N, 96.6004°W)
Time: 04:49:49
(UTC+00:00)

LightSail 2 - Pass Details

Date: 25 September 2019
Orbit: 707 x 722 km, 24.0° (Epoch: 18 October)

Event Time Altitude Azimuth Distance (km) Brightness Sun altitude
Exits shadow 11:02:04 - 207° (SSW) 2,226 7.3 -15.0°
Reaches altitude 10° 11:02:28 10° 203° (SSW) 2,162 7.3 -14.9°
Maximum altitude 11:04:30 12° 179° (S) 2,008 7.4 -14.5°
Drops below altitude 10° 11:06:31 10° 156° (SSE) 2,161 7.8 -14.1°
Sets 11:10:25 0° 127° (SE) 3,080 9.1 -13.4°
